Home   Weather   Kryvyi Rih   Past weeks

Flag for Ukraine Past Weather in Kryvyi Rih, Ukraine — Yesterday and Last 2 Weeks

Now
72 °F

Passing clouds.


Feels Like: 76 °F
Forecast: 70 / 92 °F
Wind: 8 mph from Northeast

Location: Krivyy Rih / Dnipropetrovs'k

Current Time: Aug 17, 2017 at 2:31:06 am

Latest Report: Aug 17, 2017 at 2:00 am


Visibility: N/A

Pressure: 30.01 "Hg

Humidity: 57%

Dew Point: 55 °F

Location of Kryvyi RihLocation

Past Weather in Kryvyi Rih — Graph

°F

Kryvyi Rih Temperature Yesterday

Maximum temperature yesterday: 91 °F (at 2:00 pm)
Minimum temperature yesterday: 68 °F (at 5:00 am)
Average temperature yesterday: 81 °F

High & Low Weather Summary for the Past Weeks

 TemperatureHumidityPressure
High99 °F (Aug 4, 2:00 pm)83% (Aug 3, 5:00 am)30.18 "Hg (Aug 3, 5:00 am)
Low64 °F (Aug 9, 3:00 am)13% (Aug 13, 5:00 pm)29.77 "Hg (Aug 13, 2:14 pm)
Average82 °F42%29.97 "Hg
* Reported Aug 2 1:00 am — Aug 17 1:00 am, Kryvyi Rih. Weather by CustomWeather, © 2017

Note: Actual official high and low records may vary slightly from our data, if they occured in-between our weather recording intervals... More about our weather records

Advertising

Kryvyi Rih Weather History for the Previous 24 Hours

Scroll right to see more
 ConditionsComfort  
Time TempWeatherWind HumidityBarometerVisibility
1:00 am
Thu, Aug 17
75 °FPassing clouds.10 mph50%30.01 "HgN/A
12:30 am75 °FClear.10 mph50%30.01 "Hg10 mi
12:00 am75 °FClear.10 mph50%30.04 "Hg10 mi
11:30 pm
Wed, Aug 16
77 °FClear.10 mph47%30.04 "Hg10 mi
11:00 pm77 °FPassing clouds.10 mph47%30.04 "HgN/A
10:30 pm79 °FPassing clouds.10 mph42%30.01 "HgN/A
10:00 pm79 °FClear.10 mph42%30.01 "Hg10 mi
9:30 pm81 °FPassing clouds.10 mph34%30.01 "HgN/A
9:00 pm81 °FPassing clouds.8 mph34%30.01 "HgN/A
8:30 pm84 °FClear.8 mph25%30.01 "Hg10 mi
8:00 pm84 °FPassing clouds.6 mph25%30.01 "HgN/A
7:30 pm88 °FPassing clouds.6 mph24%30.01 "HgN/A
7:00 pm88 °FPassing clouds.10 mph24%30.01 "HgN/A
6:30 pm90 °FPassing clouds.17 mph24%30.01 "HgN/A
6:00 pm90 °FPassing clouds.15 mph24%30.01 "HgN/A
5:30 pm90 °FPassing clouds.17 mph26%30.01 "HgN/A
5:00 pm90 °FScattered clouds.15 mph26%30.01 "HgN/A
4:30 pm90 °FScattered clouds.17 mph26%30.01 "HgN/A
4:04 pm90 °FScattered clouds.15 mph26%30.01 "HgN/A
3:30 pm91 °FScattered clouds.13 mph26%30.01 "HgN/A
3:13 pm91 °FScattered clouds.15 mph26%30.01 "HgN/A
3:00 pm91 °FScattered clouds.15 mph26%30.01 "HgN/A
2:30 pm91 °FScattered clouds.13 mph26%30.04 "HgN/A
2:18 pm91 °FScattered clouds.15 mph26%30.04 "HgN/A
2:00 pm91 °FScattered clouds.17 mph26%30.04 "HgN/A
1:30 pm90 °FScattered clouds.15 mph27%30.04 "HgN/A
1:14 pm90 °FScattered clouds.15 mph27%30.04 "HgN/A
1:00 pm90 °FScattered clouds.15 mph27%30.04 "HgN/A
12:30 pm88 °FScattered clouds.15 mph27%30.04 "HgN/A
12:00 pm88 °FPassing clouds.15 mph27%30.04 "HgN/A
11:30 am86 °FPassing clouds.13 mph29%30.07 "HgN/A
11:19 am86 °FPassing clouds.15 mph29%30.07 "HgN/A
10:30 am86 °FPassing clouds.10 mph29%30.07 "HgN/A
10:00 am84 °FPassing clouds.10 mph29%30.07 "HgN/A
9:30 am79 °FPassing clouds.10 mph37%30.07 "HgN/A
9:00 am79 °FPassing clouds.8 mph37%30.07 "HgN/A
8:30 am73 °FPassing clouds.10 mph44%30.07 "HgN/A
8:00 am73 °FPassing clouds.10 mph44%30.07 "HgN/A
7:30 am70 °FPassing clouds.8 mph50%30.07 "HgN/A
7:00 am70 °FPassing clouds.8 mph50%30.04 "HgN/A
6:30 am68 °FPassing clouds.10 mph49%30.04 "HgN/A
6:00 am68 °FPassing clouds.8 mph49%30.04 "HgN/A
5:30 am68 °FPassing clouds.6 mph49%30.04 "HgN/A
5:00 am68 °FPassing clouds.8 mph49%30.04 "HgN/A
4:30 am70 °FPassing clouds.6 mph50%30.01 "HgN/A
4:00 am70 °FPassing clouds.6 mph50%30.01 "HgN/A
3:30 am70 °FPassing clouds.8 mph53%30.01 "HgN/A
3:00 am70 °FPassing clouds.8 mph53%30.01 "HgN/A
2:30 am72 °FPassing clouds.6 mph50%30.01 "HgN/A
2:00 am72 °FPassing clouds.3 mph50%30.01 "HgN/A
Weather by CustomWeather, © 2017

See weather overviewHow to use our weather pages